Location: Austin
(30.3000°N, 97.7500°W)
Time: 06:08:29
(UTC-05:00)

USA 59 Rocket - Pass Details

Date: 16 June 2025
Orbit: 373 x 1694 km, 63.3° (Epoch: 07 July)

Event Time Altitude Azimuth Distance (km) Brightness Sun altitude
Rises 01:50:37 0° 339° (NNW) 2,672 4.1 -36.2°
Reaches altitude 10° 01:52:35 10° 346° (NNW) 1,914 3.3 -36.1°
Enters shadow 01:53:34 17° 352° (N) 1,569 2.7 -36.1°
